This is the latest recevied weather packets stored in our database for station/object K4ZZR. If no packets are shown the sender has not sent any weather packets the latest 10 day(s).
| Time | Temp. | Humidity | Pressure | Rain* | Wind** | Luminosity | Snow |
|---|---|---|---|---|---|---|---|
| 1778240406 | 22.78° C | 84% | 1014.9 hPa | 0 mm | - | 96 W/m² | - |
| 1778240104 | 22.78° C | 85% | 1014.9 hPa | 0 mm | - | 84 W/m² | - |
| 1778239801 | 22.22° C | 85% | 1014.6 hPa | 0 mm | - | 73 W/m² | - |
| 1778239497 | 22.22° C | 86% | 1014.8 hPa | 0 mm | - | 65 W/m² | - |
| 1778239194 | 21.67° C | 86% | 1014.4 hPa | 0 mm | - | 56 W/m² | - |
| 1778238891 | 21.67° C | 87% | 1014.5 hPa | 0 mm | - | 48 W/m² | - |
| 1778238588 | 21.11° C | 88% | 1014.5 hPa | 0 mm | - | 39 W/m² | - |
| 1778238286 | 21.11° C | 88% | 1014.2 hPa | 0 mm | - | 31 W/m² | - |
| 1778237985 | 20.56° C | 89% | 1014.2 hPa | 0 mm | - | 23 W/m² | - |
| 1778237682 | 20.56° C | 89% | 1014 hPa | 0 mm | - | 18 W/m² | - |
| 1778237379 | 20.56° C | 89% | 1014.1 hPa | 0 mm | - | 13 W/m² | - |
| 1778237077 | 20.56° C | 89% | 1014.2 hPa | 0 mm | - | 9 W/m² | - |
| 1778236773 | 20.56° C | 89% | 1014 hPa | 0 mm | - | 6 W/m² | - |
| 1778236471 | 20.56° C | 89% | 1013.7 hPa | 0 mm | - | 3 W/m² | - |
| 1778236167 | 20.56° C | 89% | 1013.7 hPa | 0 mm | - | 1 W/m² | - |
| 1778235866 | 20.56° C | 87% | 1013.5 hPa | 0 mm | - | 0 W/m² | - |
| 1778235563 | 20.56° C | 87% | 1013.6 hPa | 0 mm | - | 0 W/m² | - |
| 1778235260 | 20.56° C | 88% | 1013.7 hPa | 0 mm | - | 0 W/m² | - |
| 1778234957 | 20.56° C | 88% | 1013.6 hPa | 0 mm | - | 0 W/m² | - |
| 1778234656 | 21.11° C | 88% | 1013.4 hPa | 0 mm | - | 0 W/m² | - |
| 1778234351 | 21.11° C | 86% | 1013.4 hPa | 0 mm | - | 0 W/m² | - |
| 1778234049 | 21.11° C | 85% | 1013.4 hPa | 0 mm | - | 0 W/m² | - |
| 1778233745 | 21.11° C | 85% | 1013.5 hPa | 0 mm | - | 0 W/m² | - |
| 1778233443 | 21.11° C | 85% | 1013.4 hPa | 0 mm | - | 0 W/m² | - |
| 1778233139 | 21.11° C | 84% | 1013.4 hPa | 0 mm | - | 0 W/m² | - |
* Rain latest hour (hover to see other rain measurements)
** Current wind speed in m/s (hover to see current wind gust speed)